Hourly Weather Barra de Carrasco

Today, 23 September, Wednesday

Time Temperature Precipitation Wind Pressure Humidity
00:00 +9°C° 0 mm 5 mps 766 mmHg 76%
01:00 +9°C° 0 mm 5 mps 765 mmHg 77%
02:00 +8°C° 0 mm 5 mps 765 mmHg 79%
03:00 +8°C° 0 mm 4 mps 765 mmHg 80%
04:00 +7°C° 0 mm 4 mps 766 mmHg 81%
05:00 +7°C° 0 mm 4 mps 766 mmHg 81%
06:00 +8°C° 0 mm 4 mps 766 mmHg 78%
07:00 +11°C° 0 mm 4 mps 766 mmHg 75%
08:00 +12°C° 0 mm 3 mps 767 mmHg 72%
09:00 +14°C° 0 mm 3 mps 766 mmHg 65%
10:00 +18°C° 0 mm 2 mps 766 mmHg 58%
11:00 +21°C° 0 mm 1 mps 766 mmHg 51%
12:00 +22°C° 0 mm 1 mps 766 mmHg 48%
13:00 +21°C° 0 mm 2 mps 765 mmHg 46%
14:00 +23°C° 0 mm 2 mps 765 mmHg 43%
15:00 +21°C° 0 mm 3 mps 765 mmHg 49%
16:00 +19°C° 0 mm 3 mps 765 mmHg 56%
17:00 +18°C° 0 mm 4 mps 764 mmHg 62%
18:00 +15°C° 0 mm 4 mps 765 mmHg 65%
19:00 +14°C° 0 mm 4 mps 765 mmHg 68%
20:00 +13°C° 0 mm 4 mps 765 mmHg 71%
21:00 +13°C° 0 mm 3 mps 765 mmHg 73%
22:00 +13°C° 0 mm 3 mps 765 mmHg 75%
23:00 +12°C° 0 mm 3 mps 765 mmHg 77%

Tomorrow, 24 September, Thursday

Time Temperature Precipitation Wind Pressure Humidity
00:00 +12°C° 0 mm 3 mps 765 mmHg 78%
01:00 +13°C° 0 mm 2 mps 765 mmHg 79%
02:00 +12°C° 0 mm 2 mps 764 mmHg 80%
03:00 +12°C° 0 mm 2 mps 764 mmHg 81%
04:00 +12°C° 0 mm 2 mps 764 mmHg 81%
05:00 +12°C° 0 mm 2 mps 764 mmHg 81%
06:00 +13°C° 0 mm 2 mps 765 mmHg 77%
07:00 +14°C° 0 mm 2 mps 765 mmHg 72%
08:00 +16°C° 0 mm 2 mps 765 mmHg 68%
09:00 +17°C° 0 mm 3 mps 765 mmHg 62%
10:00 +19°C° 0 mm 3 mps 765 mmHg 57%
11:00 +21°C° 0 mm 4 mps 765 mmHg 52%
12:00 +21°C° 0 mm 4 mps 764 mmHg 52%
13:00 +21°C° 0 mm 5 mps 764 mmHg 53%
14:00 +21°C° 0 mm 5 mps 763 mmHg 54%
15:00 +20°C° 0 mm 5 mps 763 mmHg 58%
16:00 +19°C° 0 mm 5 mps 763 mmHg 62%
17:00 +17°C° 0 mm 6 mps 762 mmHg 67%
18:00 +16°C° 0 mm 6 mps 763 mmHg 72%
19:00 +15°C° 0 mm 5 mps 763 mmHg 77%
20:00 +14°C° 0 mm 5 mps 763 mmHg 82%
21:00 +14°C° 0 mm 5 mps 763 mmHg 82%
22:00 +13°C° 0 mm 4 mps 763 mmHg 81%
23:00 +13°C° 0 mm 4 mps 763 mmHg 81%

Day after tomorrow, 25 September, Friday

Time Temperature Precipitation Wind Pressure Humidity
00:00 +13°C° 0 mm 4 mps 762 mmHg 79%
01:00 +12°C° 0 mm 4 mps 762 mmHg 77%
02:00 +12°C° 0 mm 4 mps 762 mmHg 75%
03:00 +12°C° 0 mm 4 mps 762 mmHg 75%
04:00 +12°C° 0 mm 4 mps 762 mmHg 76%
05:00 +12°C° 0 mm 4 mps 762 mmHg 76%
06:00 +13°C° 0 mm 4 mps 762 mmHg 73%
07:00 +14°C° 0 mm 4 mps 762 mmHg 70%
08:00 +15°C° 0 mm 4 mps 762 mmHg 67%
09:00 +18°C° 0 mm 4 mps 761 mmHg 67%
10:00 +20°C° 0 mm 4 mps 761 mmHg 67%
11:00 +22°C° 0 mm 4 mps 761 mmHg 66%
12:00 +22°C° 0 mm 4 mps 760 mmHg 66%
13:00 +23°C° 0 mm 5 mps 760 mmHg 66%
14:00 +25°C° 0 mm 5 mps 759 mmHg 66%
15:00 +23°C° 0 mm 6 mps 759 mmHg 69%
16:00 +22°C° 0 mm 6 mps 758 mmHg 72%
17:00 +21°C° 0 mm 7 mps 758 mmHg 75%
18:00 +21°C° 0 mm 7 mps 758 mmHg 75%
19:00 +20°C° 0 mm 7 mps 759 mmHg 75%
20:00 +19°C° 0 mm 6 mps 759 mmHg 75%
21:00 +19°C° 0 mm 6 mps 759 mmHg 73%
22:00 +17°C° 0 mm 6 mps 758 mmHg 72%
23:00 +17°C° 0 mm 5 mps 758 mmHg 70%

26 September, Saturday

Time Temperature Precipitation Wind Pressure Humidity
00:00 +17°C° 0.5 mm 5 mps 758 mmHg 77%
01:00 +17°C° 0.5 mm 4 mps 757 mmHg 83%
02:00 +17°C° 0.5 mm 4 mps 757 mmHg 90%
03:00 +17°C° 0.9 mm 4 mps 757 mmHg 91%
04:00 +17°C° 0.9 mm 3 mps 757 mmHg 92%
05:00 +17°C° 0.9 mm 3 mps 756 mmHg 93%
06:00 +17°C° 1.4 mm 4 mps 757 mmHg 93%
07:00 +18°C° 1.4 mm 4 mps 757 mmHg 93%
08:00 +18°C° 1.4 mm 4 mps 757 mmHg 93%
09:00 +17°C° 0.4 mm 5 mps 756 mmHg 92%
10:00 +17°C° 0.4 mm 5 mps 756 mmHg 91%
11:00 +19°C° 0.4 mm 5 mps 756 mmHg 91%
12:00 +19°C° 0.3 mm 5 mps 756 mmHg 91%
13:00 +19°C° 0.3 mm 4 mps 755 mmHg 92%
14:00 +19°C° 0.3 mm 4 mps 755 mmHg 92%
15:00 +19°C° 0.2 mm 4 mps 754 mmHg 92%
16:00 +20°C° 0.2 mm 4 mps 754 mmHg 92%
17:00 +20°C° 0.2 mm 3 mps 754 mmHg 93%
18:00 +19°C° 0.1 mm 3 mps 754 mmHg 94%
19:00 +19°C° 0.1 mm 3 mps 754 mmHg 95%
20:00 +19°C° 0.1 mm 3 mps 754 mmHg 96%
21:00 +18°C° 0 mm 3 mps 754 mmHg 95%
22:00 +18°C° 0 mm 2 mps 754 mmHg 95%
23:00 +18°C° 0 mm 2 mps 753 mmHg 95%

27 September, Sunday

Time Temperature Precipitation Wind Pressure Humidity
00:00 +18°C° 0.2 mm 2 mps 753 mmHg 96%
01:00 +18°C° 0.2 mm 3 mps 752 mmHg 96%
02:00 +18°C° 0.2 mm 3 mps 751 mmHg 97%
03:00 +18°C° 0.5 mm 3 mps 751 mmHg 97%
04:00 +18°C° 0.5 mm 2 mps 751 mmHg 98%
05:00 +18°C° 0.5 mm 2 mps 751 mmHg 98%
06:00 +18°C° 0.7 mm 3 mps 752 mmHg 97%
07:00 +18°C° 0.7 mm 4 mps 752 mmHg 95%
08:00 +17°C° 0.7 mm 5 mps 752 mmHg 94%
09:00 +17°C° 0.1 mm 6 mps 752 mmHg 90%
10:00 +16°C° 0.1 mm 7 mps 753 mmHg 86%
11:00 +16°C° 0.1 mm 8 mps 753 mmHg 82%
12:00 +16°C° 0 mm 8 mps 753 mmHg 79%
13:00 +16°C° 0 mm 7 mps 754 mmHg 77%
14:00 +16°C° 0 mm 7 mps 754 mmHg 74%
15:00 +16°C° 0 mm 6 mps 754 mmHg 74%
16:00 +16°C° 0 mm 5 mps 755 mmHg 73%
17:00 +17°C° 0 mm 4 mps 755 mmHg 73%
18:00 +16°C° 0 mm 3 mps 755 mmHg 76%
19:00 +15°C° 0 mm 2 mps 756 mmHg 78%
20:00 +15°C° 0 mm 1 mps 756 mmHg 81%
21:00 +14°C° 0 mm 2 mps 756 mmHg 82%
22:00 +13°C° 0 mm 3 mps 756 mmHg 83%
23:00 +13°C° 0 mm 3 mps 757 mmHg 84%

28 September, Monday

Time Temperature Precipitation Wind Pressure Humidity
00:00 +13°C° 0 mm 4 mps 756 mmHg 85%
01:00 +13°C° 0 mm 4 mps 756 mmHg 86%
02:00 +12°C° 0 mm 4 mps 756 mmHg 87%
03:00 +12°C° 0 mm 4 mps 756 mmHg 86%
04:00 +12°C° 0 mm 5 mps 757 mmHg 85%
05:00 +12°C° 0 mm 5 mps 757 mmHg 84%
06:00 +13°C° 0 mm 5 mps 757 mmHg 81%
07:00 +15°C° 0 mm 5 mps 758 mmHg 77%
08:00 +16°C° 0 mm 5 mps 758 mmHg 74%
09:00 +19°C° 0 mm 5 mps 758 mmHg 67%
10:00 +21°C° 0 mm 5 mps 758 mmHg 59%
11:00 +23°C° 0 mm 5 mps 758 mmHg 52%
12:00 +25°C° 0 mm 5 mps 757 mmHg 49%
13:00 +25°C° 0 mm 4 mps 757 mmHg 47%
14:00 +26°C° 0 mm 4 mps 757 mmHg 44%
15:00 +25°C° 0 mm 3 mps 757 mmHg 49%
16:00 +24°C° 0 mm 3 mps 757 mmHg 53%
17:00 +23°C° 0 mm 2 mps 757 mmHg 58%
18:00 +21°C° 0 mm 2 mps 757 mmHg 62%
19:00 +20°C° 0 mm 3 mps 757 mmHg 65%
20:00 +18°C° 0 mm 3 mps 757 mmHg 69%
21:00 +18°C° 0 mm 3 mps 757 mmHg 69%
22:00 +17°C° 0 mm 3 mps 758 mmHg 68%
23:00 +17°C° 0 mm 4 mps 758 mmHg 68%
Show more